This demonstration page uses our WeatherBlox Daily Observations layout. Learn more.

Hourly Observations for March 25, 2017

Temp ( °F °C ) Dew Point ( °F °C ) Humidity (%) Winds ( mph kmh ) Pressure ( in mb ) Visibility ( mi km ) Precip ( " mm )
12:15 am 00:15 Cloudy 41 4.8 38 3.6 92 92 NNE 17 28 30.09 1019 10 16.0934 0 0
12:35 am 00:35 Cloudy 40 4.7 38 3.5 92 92 NNE 21 33 30.06 1018 10 16.0934 0 0
12:55 am 00:55 Cloudy 40 4.6 38 3.4 92 92 NNE 20 31 30.06 1018 10 16.0934 0 0
1:15 am 01:15 Cloudy 40 4.5 38 3.2 91 91 NNE 17 28 30.06 1018 10 16.0934 0 0
1:35 am 01:35 Cloudy 40 4.5 38 3.2 91 91 NNE 17 28 30.06 1018 7 11.26538 0 0
1:55 am 01:55 Cloudy 40 4.5 38 3.2 91 91 NNE 13 20 30.09 1019 7 11.26538 0 0
2:15 am 02:15 Cloudy 40 4.5 38 3.2 91 91 N 13 20 30.06 1018 10 16.0934 0 0
2:35 am 02:35 Cloudy 40 4.5 38 3.2 91 91 N 14 22 30.09 1019 7 11.26538 0 0
2:55 am 02:55 Cloudy 40 4.5 38 3.1 91 91 N 10 17 30.06 1018 7 11.26538 0 0
3:15 am 03:15 Cloudy 40 4.5 38 3.2 91 91 N 14 22 30.06 1018 7 11.26538 0 0
3:35 am 03:35 Cloudy 40 4.3 38 3.1 92 92 N 12 19 30.06 1018 7 11.26538 0 0
3:55 am 03:55 Cloudy 40 4.3 37 3 91 91 N 9 15 30.06 1018 7 11.26538 0 0
4:15 am 04:15 Cloudy 40 4.3 37 3 91 91 N 9 15 30.06 1018 7 11.26538 0 0
4:35 am 04:35 Cloudy 40 4.5 38 3.2 91 91 NNW 16 26 30.06 1018 7 11.26538 0 0
4:55 am 04:55 Cloudy 39 4 37 2.7 91 91 N 14 22 30.06 1018 7 11.26538 0 0
5:15 am 05:15 Cloudy 39 3.7 37 2.5 92 92 N 16 26 30.06 1018 7 11.26538 0 0
5:35 am 05:35 Cloudy 38 3.3 36 2.2 93 93 N 14 22 30.06 1018 7 11.26538 0 0
5:55 am 05:55 Cloudy with Mist and Fog 38 3.1 36 2.2 94 94 N 13 20 30.09 1019 5 8.0467 0 0
6:15 am 06:15 Cloudy with Mist and Fog 37 3 36 2.1 94 94 N 14 22 30.09 1019 5 8.0467 0 0
6:35 am 06:35 Cloudy with Mist and Fog 37 2.8 36 2 95 95 N 15 24 30.12 1020 2 3.21868 0 0
6:55 am 06:55 Cloudy with Mist and Fog 37 2.6 36 2 96 96 N 14 22 30.12 1020 2 3.21868 0 0
7:15 am 07:15 Cloudy with Mist and Fog 37 2.5 35 1.9 96 96 N 17 28 30.12 1020 1 1.60934 0 0
7:35 am 07:35 Cloudy with Mist and Fog 37 2.5 35 1.8 95 95 N 16 26 30.12 1020 1 1.60934 0 0
7:55 am 07:55 Cloudy 36 2.2 35 1.6 96 96 N 21 33 30.12 1020 7 11.26538 0 0
8:15 am 08:15 Cloudy with Mist and Fog 37 2.5 35 1.8 95 95 N 13 20 30.12 1020 1.5 2.41401 0 0
8:35 am 08:35 Cloudy with Mist and Fog 36 2.3 35 1.7 96 96 N 17 28 30.12 1020 2.5 4.02335 0 0
8:55 am 08:55 Cloudy with Mist and Fog 37 2.5 35 1.8 95 95 N 14 22 30.12 1020 1.25 2.011675 0 0
9:15 am 09:15 Cloudy with Mist and Fog 37 2.5 36 2 97 97 N 17 28 30.12 1020 1 1.60934 0 0
9:35 am 09:35 Cloudy with Mist and Fog 37 2.6 36 2.1 97 97 N 18 30 30.12 1020 3 4.82802 0 0
9:55 am 09:55 Cloudy with Mist and Fog 37 2.8 36 2.2 96 96 N 20 31 30.12 1020 4 6.43736 0 0
10:15 am 10:15 Cloudy with Mist and Fog 37 3 36 2.3 95 95 N 17 28 30.09 1019 5 8.0467 0 0
10:35 am 10:35 Cloudy with Mist and Fog 38 3.2 37 2.6 96 96 N 16 26 30.06 1018 5 8.0467 0 0
10:55 am 10:55 Cloudy 38 3.5 37 2.7 95 95 N 14 22 30.09 1019 7 11.26538 0 0
11:15 am 11:15 Cloudy 38 3.3 37 2.5 95 95 N 13 20 30.09 1019 10 16.0934 0 0
11:35 am 11:35 Cloudy 39 3.9 37 3 94 94 N 13 20 30.09 1019 10 16.0934 0 0
11:55 am 11:55 Cloudy 39 4 37 2.8 92 92 N 15 24 30.09 1019 10 16.0934 0 0
12:15 pm 12:15 Cloudy 40 4.5 38 3.1 91 91 N 13 20 30.06 1018 10 16.0934 0 0
12:35 pm 12:35 Cloudy 41 5 38 3.5 90 90 N 10 17 30.06 1018 10 16.0934 0 0
12:55 pm 12:55 Cloudy 41 4.8 38 3.2 90 90 N 13 20 30.06 1018 10 16.0934 0 0
1:15 pm 13:15 Cloudy 41 5.1 38 3.5 90 90 N 10 17 30.06 1018 10 16.0934 0 0
1:35 pm 13:35 Cloudy 42 5.5 39 3.7 88 88 N 9 15 30.06 1018 10 16.0934 0 0
1:55 pm 13:55 Cloudy 42 5.8 39 4 88 88 NNW 7 11 30.06 1018 10 16.0934 0 0
2:15 pm 14:15 Cloudy 43 6.1 39 4 87 87 NNE 7 11 30 1016 10 16.0934 0 0
2:35 pm 14:35 Cloudy 43 6.2 39 4 86 86 NE 8 13 30 1016 10 16.0934 0 0
2:55 pm 14:55 Cloudy 43 6.1 39 4 87 87 NNE 6 9 30 1016 10 16.0934 0 0
3:15 pm 15:15 Cloudy 43 6.2 40 4.2 87 87 N 8 13 30 1016 10 16.0934 0 0
3:35 pm 15:35 Cloudy 44 6.5 40 4.2 85 85 NNE 6 9 29.97 1015 10 16.0934 0 0
3:55 pm 15:55 Cloudy 45 7 40 4.6 85 85 NNE 6 9 29.97 1015 10 16.0934 0 0
4:15 pm 16:15 Cloudy 44 6.8 40 4.6 86 86 NNE 7 11 29.97 1015 10 16.0934 0 0
4:35 pm 16:35 Cloudy 44 6.6 40 4.6 87 87 NNE 7 11 29.97 1015 10 16.0934 0 0
4:55 pm 16:55 Cloudy 44 6.5 40 4.5 87 87 NNE 9 15 29.97 1015 10 16.0934 0 0
5:15 pm 17:15 Cloudy 44 6.5 40 4.5 87 87 NE 6 9 29.97 1015 10 16.0934 0 0
5:35 pm 17:35 Cloudy 44 6.7 40 4.7 87 87 ENE 9 15 29.94 1014 10 16.0934 0 0
5:55 pm 17:55 Cloudy 44 6.4 40 4.6 88 88 ENE 10 17 29.94 1014 10 16.0934 0 0
6:15 pm 18:15 Cloudy 42 5.8 40 4.5 91 91 E 9 15 29.94 1014 7 11.26538 0 0
6:35 pm 18:35 Cloudy 42 5.7 40 4.4 91 91 N 3 6 29.94 1014 7 11.26538 0 0
6:55 pm 18:55 Cloudy 42 5.8 40 4.5 91 91 NNE 6 9 29.94 1014 7 11.26538 0 0
7:15 pm 19:15 Cloudy 42 5.8 40 4.5 91 91 NNE 3 6 29.94 1014 10 16.0934 0 0
7:35 pm 19:35 Cloudy 42 5.8 40 4.5 91 91 NE 3 6 29.94 1014 10 16.0934 0 0
7:55 pm 19:55 Cloudy 42 5.8 40 4.5 91 91 ENE 5 7 29.94 1014 10 16.0934 0 0
8:15 pm 20:15 Cloudy 42 5.7 40 4.5 92 92 Calm 29.97 1015 10 16.0934 0 0
8:35 pm 20:35 Cloudy 42 5.7 40 4.5 92 92 NE 5 7 29.97 1015 7 11.26538 0 0
8:55 pm 20:55 Cloudy with Mist and Fog 42 5.5 40 4.5 93 93 ENE 3 6 29.97 1015 5 8.0467 0 0
9:15 pm 21:15 Cloudy with Mist and Fog 42 5.5 40 4.5 93 93 ENE 3 6 29.97 1015 5 8.0467 0 0
9:35 pm 21:35 Cloudy with Mist and Fog 42 5.3 40 4.5 95 95 E 6 9 30 1016 4 6.43736 0 0
9:55 pm 21:55 Cloudy with Mist and Fog 41 5 40 4.3 95 95 E 7 11 30 1016 3 4.82802 0 0
10:15 pm 22:15 Cloudy with Mist and Fog 41 4.8 39 4.1 95 95 E 9 15 30 1016 3 4.82802 0 0
10:35 pm 22:35 Cloudy with Mist and Fog 40 4.6 39 4 96 96 E 9 15 29.97 1015 2.5 4.02335 0 0
10:55 pm 22:55 Cloudy with Mist and Fog 40 4.5 39 4 97 97 E 7 11 29.97 1015 2.5 4.02335 0 0
11:15 pm 23:15 Cloudy with Mist and Fog 40 4.5 39 3.8 95 95 E 6 9 29.97 1015 3 4.82802 0 0
11:35 pm 23:35 Cloudy with Mist and Fog 40 4.5 39 3.8 95 95 E 7 11 29.97 1015 3 4.82802 0 0
11:55 pm 23:55 Cloudy with Mist and Fog 40 4.5 39 3.8 95 95 E 8 13 29.97 1015 2.5 4.02335 0 0

Powered by AerisWeather